Theta_e
314 309 306 309 312 314 314 315 314 319 320 320 322 321 322 325 329 326 327 329 331 333 339 343 345 347 348 352 356 359 362 366 366 363 357 358 360 361 362 361 370 365 365 365
310 305 310 313 314 313 313 313 315 320 323 322 320 322 325 326 328 329 328 329 330 333 337 341 345 346 347 352 355 360 362 369 366 362 361 358 358 357 360 361 364 363 365 364
306 309 312 311 311 312 312 312 315 316 321 322 320 317 322 328 330 330 331 332 332 333 333 340 343 345 347 351 356 359 362 367 364 367 362 364 369 370 355 357 356 363 364 365
309 312 310 309 309 312 309 316 316 317 316 311 320 308 320 324 327 328 329 331 332 333 335 337 341 346 346 351 358 361 363 365 366 365 365 364 356 356 358 362 357 363 365 363
308 309 308 307 308 314 312 317 316 316 314 316 316 311 317 324 322 326 328 331 332 335 335 335 340 345 347 351 355 360 363 365 366 365 367 365 360 353 360 358 364 364 366 362
311 315 312 311 312 313 316 315 315 315 313 307 314 310 312 319 322 325 329 329 335 334 336 338 340 345 347 350 354 358 363 364 366 367 365 366 361 358 359 361 359 358 358 359
309 310 313 313 309 312 312 310 305 304 305 304 315 313 316 323 325 326 324 329 335 338 337 338 339 341 347 349 351 356 363 363 366 367 366 364 366 365 361 368 362 355 350 352
303 302 309 313 309 308 309 309 306 300 302 305 314 309 316 326 327 325 327 328 334 336 338 340 341 341 347 348 352 354 361 363 366 366 368 368 366 366 364 364 361 355 356 352
305 304 313 313 313 311 308 306 312 307 309 306 310 314 321 325 323 327 328 328 328 331 337 339 343 344 345 349 351 354 362 363 366 368 368 368 368 366 363 365 363 364 360 362
310 304 311 313 314 312 310 313 304 306 301 301 307 310 312 321 320 325 324 327 329 330 337 338 339 343 345 348 352 355 358 364 367 369 369 367 368 369 366 365 364 359 367 360
311 309 308 313 309 307 307 305 307 308 308 303 302 308 321 321 326 326 326 328 329 328 334 338 339 342 345 346 350 352 355 362 365 368 369 368 368 369 367 364 363 364 363 361
312 309 305 307 314 314 311 308 307 302 305 308 307 309 321 328 327 328 327 329 330 331 330 333 340 342 343 344 346 349 353 354 363 367 367 368 369 368 367 363 366 367 362 362
314 307 303 304 309 313 309 309 308 307 307 307 304 307 321 324 323 325 327 328 330 333 337 338 337 341 344 344 345 346 350 352 359 365 365 367 367 366 365 365 362 365 364 362
316 309 306 302 306 309 308 309 309 307 303 305 308 311 316 321 322 325 327 329 331 337 340 340 346 343 344 346 346 347 348 353 355 361 363 364 366 366 365 365 365 365 366 362
312 306 308 309 308 310 309 309 308 307 308 305 308 312 316 320 324 325 334 332 333 336 337 341 340 348 354 350 350 350 350 351 354 358 360 363 367 367 367 366 366 366 365 362
313 307 308 306 308 308 307 310 310 310 309 309 310 310 319 323 325 328 324 325 330 333 333 341 347 350 354 356 353 351 352 352 354 355 358 362 365 367 367 366 366 364 364 360
310 307 307 303 308 307 303 309 310 310 311 310 306 313 319 319 321 326 329 326 331 331 332 337 346 349 353 357 358 354 354 357 354 357 358 361 365 366 366 367 365 363 362 359
312 309 308 304 307 298 309 314 313 312 312 312 312 315 317 319 322 323 329 332 333 334 333 338 334 346 352 353 354 362 358 359 358 360 360 363 366 366 367 366 364 363 361 355
312 311 304 302 301 305 308 312 312 310 312 316 315 317 317 318 319 320 324 326 330 333 338 340 334 332 350 350 355 358 361 359 360 359 366 366 367 367 366 363 362 360 358 351
309 314 307 305 299 297 309 313 318 317 308 319 318 319 318 321 313 316 326 325 326 328 330 337 338 335 337 351 354 358 358 361 358 363 365 369 369 367 364 362 361 362 360 351
303 306 302 303 301 305 313 316 321 308 313 327 325 324 323 322 327 335 333 329 327 328 331 334 339 342 359 354 355 358 359 360 362 366 368 368 368 367 366 361 359 357 355 353
302 302 301 304 303 300 319 320 313 324 330 330 329 329 327 330 331 332 334 335 336 342 341 341 351 356 362 360 364 361 361 366 368 366 366 366 366 360 360 355 353 351 348 346
300 305 304 308 308 322 321 327 329 328 327 329 330 329 329 328 328 329 337 340 337 340 345 347 353 364 366 372 365 361 367 366 366 363 362 360 360 358 355 351 350 343 344 340
310 312 309 310 314 321 323 324 328 329 329 331 332 331 330 329 330 333 338 339 341 345 349 353 355 358 361 366 367 366 365 363 361 359 359 358 354 349 348 346 345 342 339 340
307 309 309 312 324 323 323 325 326 328 332 332 336 336 337 338 338 340 342 345 345 350 354 355 357 357 360 363 362 363 362 361 358 356 351 348 346 342 328 319 316 339 325 326
308 305 305 311 311 313 322 325 328 327 327 330 331 332 336 338 337 339 339 344 345 348 352 352 350 348 352 356 355 356 359 358 353 347 346 343 339 335 329 327 320 301 302 300
Wind_Speed
22 17 22 26 25 24 24 20 24 15 20 19 19 17 17 29 21 19 20 19 20 20 19 17 18 17 16 16 14 14 11 10 9 8 8 7 5 5 5 6 6 5 4 6
21 25 25 24 26 26 28 26 24 22 26 29 17 26 33 33 21 20 21 20 19 20 19 18 18 16 18 15 16 14 12 10 8 7 6 6 9 9 9 9 5 6 7 4
25 24 25 26 25 28 27 26 22 10 24 23 16 18 22 23 22 19 20 23 21 20 20 20 19 18 17 17 16 15 14 11 11 9 7 6 2 3 4 6 7 10 11 8
25 25 26 27 29 28 26 26 26 14 17 13 20 14 17 21 23 22 20 19 24 22 21 20 22 20 18 17 17 17 16 14 12 12 8 8 6 5 4 3 4 5 8 6
23 25 28 29 31 30 24 25 24 22 17 19 18 13 13 17 20 24 22 21 20 24 23 22 23 22 20 18 19 18 18 16 14 13 10 6 8 9 6 4 7 6 5 4
24 23 28 27 27 28 25 25 25 22 17 15 16 14 26 19 19 7 22 22 21 21 23 22 20 22 22 20 19 19 21 19 17 15 14 11 10 10 5 4 7 5 6 5
25 27 25 25 24 27 28 25 15 18 17 15 23 23 15 12 14 4 11 19 23 22 21 22 23 21 22 23 21 19 21 19 19 17 17 15 13 11 9 4 5 7 7 8
22 22 29 24 29 24 25 26 16 21 18 18 23 20 14 23 19 13 25 27 25 22 18 21 22 20 21 23 21 19 22 21 20 20 17 16 16 9 9 8 7 7 5 8
22 25 19 30 23 28 25 27 25 25 23 18 17 17 21 17 15 27 31 9 6 10 18 21 21 21 19 20 22 21 19 21 21 20 17 17 16 15 12 9 9 5 7 5
24 18 23 24 28 29 28 16 25 20 26 25 20 20 12 19 20 15 18 18 19 21 26 21 19 21 19 19 19 20 18 21 21 20 18 17 17 16 13 11 10 10 6 8
27 22 19 25 27 26 20 24 24 21 21 17 17 16 16 19 22 19 22 18 19 13 18 22 22 21 20 19 20 20 20 19 21 20 19 18 17 17 16 13 13 13 10 8
27 18 20 26 26 29 30 29 29 19 22 17 19 15 16 7 21 20 17 15 14 14 17 18 22 21 21 21 21 22 20 20 21 20 18 19 17 17 17 16 14 13 13 10
22 22 17 24 26 25 30 28 26 27 23 20 19 16 21 9 13 16 14 16 17 13 6 4 15 21 20 22 21 23 22 22 20 19 19 18 18 18 18 18 17 14 14 12
17 20 28 19 19 19 24 29 29 27 20 20 20 19 26 10 20 18 11 14 8 7 9 7 3 8 22 23 22 22 23 22 22 21 20 19 19 19 18 16 16 15 16 15
15 16 19 28 31 27 27 29 28 28 26 23 22 21 23 23 12 12 4 7 7 5 6 11 9 5 6 16 20 19 21 22 22 20 21 19 18 18 16 15 15 15 15 14
19 18 16 24 27 30 29 27 27 30 29 29 26 25 20 24 19 10 17 14 11 10 9 8 11 8 7 11 18 21 19 21 18 20 21 18 17 17 16 15 15 15 14 13
20 16 16 20 22 24 28 30 24 23 25 23 24 22 17 15 13 13 14 14 13 16 15 9 12 12 9 10 14 18 20 17 19 17 18 18 17 18 17 16 15 15 14 13
18 19 13 16 18 28 14 23 24 25 21 22 21 18 17 16 13 12 8 7 6 10 11 7 8 11 12 12 15 13 17 15 17 15 17 17 17 17 17 15 14 13 11 13
17 14 15 16 18 17 25 18 21 21 22 17 20 20 18 17 18 16 14 14 10 11 9 7 11 12 14 14 13 15 15 17 14 16 14 15 16 16 16 15 14 11 10 10
23 15 14 16 22 26 15 22 21 15 15 19 20 18 11 6 14 14 15 16 15 13 13 8 9 10 11 16 17 17 17 15 17 14 13 12 14 14 13 12 9 8 8 8
14 14 17 14 15 18 12 15 11 13 2 7 8 5 5 7 7 10 14 15 16 15 13 11 10 7 6 17 16 17 17 17 15 12 12 13 13 12 11 10 7 6 5 6
8 9 12 14 16 14 6 8 11 5 8 7 7 6 5 8 10 10 13 6 1 6 6 3 3 3 9 12 11 15 14 12 12 12 13 13 12 9 8 12 10 13 11 7
18 15 12 12 10 9 10 13 6 3 3 5 5 6 6 8 10 11 6 7 3 3 4 5 1 8 6 6 12 14 12 14 13 14 14 13 12 10 10 10 8 5 7 10
15 17 9 14 13 5 14 15 5 3 6 1 6 6 2 4 5 2 5 2 2 4 6 6 11 12 10 10 10 12 15 15 15 15 13 13 13 13 11 7 7 6 5 5
3 11 13 11 10 10 8 11 9 8 10 11 14 12 15 17 16 16 13 9 5 6 8 6 10 11 10 12 13 13 15 16 15 14 12 11 11 11 10 9 5 4 7 3
5 4 5 6 17 17 13 10 14 15 15 15 15 17 17 16 14 13 12 12 12 12 10 10 12 12 10 11 12 13 13 14 15 13 10 9 9 10 8 8 7 15 9 5
Wind_Direction
209 214 220 215 226 236 246 227 228 157 355 203 160 149 252 240 209 188 183 186 190 194 189 189 188 181 184 178 175 178 183 184 163 167 178 202 208 199 208 240 149 131 188 208
212 219 221 217 220 232 246 255 244 164 172 233 187 179 186 222 188 190 184 186 195 194 193 190 182 193 184 183 177 173 183 177 177 180 177 208 200 211 196 214 187 184 194 191
224 213 222 214 221 225 236 248 253 195 193 208 198 205 191 179 183 194 196 184 193 197 196 183 187 191 186 182 175 174 179 181 180 195 187 219 266 163 185 194 181 186 185 188
222 233 209 221 219 224 231 235 254 241 171 199 215 221 204 196 183 188 192 207 189 192 193 192 186 187 193 185 176 174 175 184 182 205 207 194 198 239 197 244 205 148 160 168
223 219 230 210 224 222 233 236 238 252 231 192 190 266 262 205 200 185 188 199 209 189 193 199 189 187 192 188 181 175 176 182 187 198 213 210 186 209 234 204 129 132 131 135
235 225 228 228 216 231 227 239 247 245 253 226 192 179 268 194 202 205 188 201 198 206 187 191 197 184 188 191 184 181 176 183 186 192 205 224 195 226 204 203 147 154 155 171
224 236 229 233 216 218 232 228 229 235 234 241 214 188 208 268 175 183 248 251 194 194 193 184 192 191 185 189 188 180 178 183 184 191 197 212 223 208 222 227 184 173 182 173
223 219 227 209 229 223 221 228 228 229 230 236 238 235 195 199 170 157 226 226 205 190 191 186 188 191 184 188 185 185 178 183 184 189 197 201 216 214 213 197 234 194 207 182
218 228 217 227 212 232 217 223 232 240 244 249 237 222 222 207 188 185 204 184 169 153 204 190 185 188 189 183 186 184 173 181 185 187 194 201 203 210 208 204 208 216 211 141
234 245 217 210 226 220 230 219 221 233 239 243 242 247 235 189 173 204 205 190 187 214 195 187 189 185 185 183 181 182 179 179 185 189 192 202 202 200 207 203 207 204 217 159
226 243 243 212 203 218 209 230 239 233 241 245 246 244 240 182 188 196 207 190 231 211 196 186 184 185 182 180 178 184 182 177 184 190 194 200 202 199 200 204 201 191 203 175
212 225 240 245 216 210 218 215 231 235 222 238 258 248 245 225 198 188 207 219 203 222 233 195 178 178 177 183 179 182 185 189 188 190 194 200 198 198 197 206 202 194 194 174
208 214 226 239 245 218 211 222 221 239 248 240 236 241 258 111 44 271 201 208 211 207 125 91 180 175 178 183 182 183 185 189 192 192 196 200 200 198 200 201 206 196 193 182
207 223 218 233 231 234 219 214 221 232 230 237 245 232 258 228 178 226 149 244 193 192 151 150 142 186 190 184 186 183 185 186 191 192 199 201 199 201 203 201 198 202 194 191
221 233 250 218 246 230 236 218 218 227 241 243 238 238 224 250 202 209 248 189 231 206 181 157 178 208 203 189 185 186 183 185 186 192 197 202 200 200 201 200 197 201 197 196
217 231 245 255 225 240 248 229 229 218 225 242 247 248 245 227 247 197 191 240 219 209 238 194 169 186 218 181 178 184 187 185 186 189 195 197 194 194 199 197 197 195 199 188
197 224 221 239 241 238 237 240 235 235 222 229 240 250 256 250 267 260 215 236 235 196 209 207 171 187 202 180 171 183 191 179 189 187 192 191 186 190 193 191 194 192 191 188
214 197 226 237 234 233 250 229 237 254 240 224 240 251 262 267 267 276 279 268 266 228 216 203 237 183 190 196 179 171 183 192 188 190 187 188 184 185 184 185 188 190 190 190
225 184 219 235 236 243 244 229 234 230 249 243 225 221 228 248 262 258 258 264 252 251 267 229 228 249 185 192 184 175 179 191 195 189 184 180 179 175 176 179 188 188 178 186
217 193 220 208 230 227 230 229 237 238 257 244 248 244 258 307 235 241 250 245 255 255 254 236 227 233 236 188 183 170 178 184 195 189 181 167 161 166 169 177 177 184 175 171
215 199 218 228 228 242 247 254 178 212 169 22 14 8 323 281 306 339 309 249 233 255 245 232 231 263 238 183 178 171 173 182 181 168 162 152 156 159 157 149 145 141 153 153
259 226 222 225 225 221 213 173 205 41 106 62 11 15 359 323 308 297 310 255 324 355 325 283 132 225 155 171 154 161 164 151 147 155 149 144 139 147 141 143 152 149 137 137
232 250 260 251 244 131 79 346 58 127 82 38 331 326 330 318 299 278 49 24 30 353 344 336 323 101 106 105 139 142 136 136 139 138 135 130 134 117 118 122 126 131 145 141
308 19 291 232 251 148 157 176 140 69 117 146 5 350 305 308 296 33 88 89 80 82 58 72 96 93 99 111 116 117 124 125 127 126 130 130 121 117 118 127 140 152 140 157
359 321 343 291 156 110 114 128 139 140 111 87 55 51 54 62 46 55 43 40 92 98 87 94 96 105 107 108 114 119 122 122 123 123 120 112 115 105 87 68 27 87 51 31
4 348 331 317 330 310 131 110 94 90 81 94 90 68 50 64 71 68 61 48 47 63 75 75 79 84 98 107 111 122 122 121 124 124 126 133 124 125 124 124 106 57 62 52